Track NAVSTAR 78 (USA 293) now! NAVSTAR 78 (USA 293) is classified as:
1 44506U 19056A 22138.14744868 -.00000080 00000-0 00000+0 0 9996 2 44506 55.6650 30.2534 0023064 179.2865 4.3303 2.00571854 20162